Content
SEND FEEDBACK

Daily
Averages
Monthly
Summary
United States of America

GRANBY, COLORADO


Home > North America > United States > Colorado
Elevation: 2502 meters     Latitude: 40 06N     Longitude: 105 56W

WEATHER
 
SELECT A DAY
Number of Records: 269,477;   Date Range: 8/13/03 - 11/21/14
 
SHARE

PRINT THIS DATA

[ ← Previous Day ]
WEATHER ALMANAC - 10 APRIL, 2014
[ Next Day → ]
[ °F ]   °C
Weather ElementAverageHighLow
Temperature9.4 °C16 °C (12:36 pm)2 °C (6:56 am)
Dewpoint-5.9 °C-1 °C (9:16 pm)-11 °C (12:35 am)
Humidity38.1 %75 % (11:36 pm)15 % (1:56 pm)
Barometer1019.6 hPa1021.7 hPa (9:36 pm)1018.6 hPa (4:56 am)
Wind Speed9.8 km/h25.9 km/h (2:36 pm)
Wind Gust40.7 km/h (4:35 pm)
Weather ElementAverage
Visibility16.1 km
Wind DirectionS (185.1 °)

Weather ElementTotal
Precipitation---
Heating Degree Days9.3 (Base 18.3)
Averaged from 71 records on 10 April, 2014
WEATHER CONDITIONS BREAKOUT
WIND DIRECTION BREAKOUT
WEATHER BY HOUR - 10 APRIL, 2014
[ °F ]   °C
Local TimeTemperatureDewpointHumidityBarometerVisibilityWind DirectionWind SpeedGust SpeedPrecipitationEventsConditions
12:35 AM10 °C-11 °C22 %1019.3 hPa16.1 kmWNW (300°)7.4 km/hOvercast
12:55 AM9 °C-10 °C25 %1019.6 hPa16.1 kmNNW (340°)13 km/hMostly Cloudy
1:15 AM10 °C-11 °C22 %1019.6 hPa16.1 kmWNW (300°)7.4 km/hScattered Clouds
1:36 AM7 °C-10 °C29 %1019.6 hPa16.1 kmWest (280°)7.4 km/hScattered Clouds
1:56 AM5 °C-10 °C33 %1019.3 hPa16.1 kmNorth (360°)7.4 km/hScattered Clouds
2:16 AM6 °C-10 °C31 %1019.3 hPa16.1 kmCalmMostly Cloudy
2:36 AM5 °C-8 °C39 %1019 hPa16.1 kmNNW (330°)7.4 km/hMostly Cloudy
2:56 AM4 °C-7 °C45 %1019 hPa16.1 kmESE (120°)5.6 km/hOvercast
3:16 AM3 °C-6 °C52 %1019 hPa16.1 kmCalmMostly Cloudy
3:36 AM3 °C-6 °C52 %1019.3 hPa16.1 kmCalmMostly Cloudy
3:56 AM3 °C-5 °C56 %1019 hPa16.1 kmCalmMostly Cloudy
4:16 AM3 °C-5 °C56 %1019 hPa16.1 kmNorth (350°)5.6 km/hMostly Cloudy
4:36 AM3 °C-4 °C60 %1019.3 hPa16.1 kmCalmOvercast
4:56 AM3 °C-5 °C56 %1018.6 hPa16.1 kmSE (130°)5.6 km/hScattered Clouds
5:16 AM3 °C-5 °C56 %1019 hPa16.1 kmNNE (20°)7.4 km/hScattered Clouds
5:35 AM3 °C-5 °C56 %1019.3 hPa16.1 kmESE (120°)11.1 km/hOvercast
5:56 AM3 °C-4 °C60 %1019.6 hPa16.1 kmENE (60°)5.6 km/hOvercast
6:16 AM3 °C-4 °C60 %1020 hPa16.1 kmCalmOvercast
6:36 AM3 °C-3 °C65 %1020 hPa16.1 kmCalmOvercast
6:56 AM2 °C-4 °C65 %1020 hPa16.1 kmCalmMostly Cloudy
7:16 AM2 °C-3 °C70 %1020 hPa16.1 kmCalmScattered Clouds
7:36 AM3 °C-3 °C65 %1020 hPa16.1 kmCalmScattered Clouds
7:56 AM5 °C-4 °C53 %1020 hPa16.1 kmCalmClear
8:16 AM8 °C-4 °C43 %1020 hPa16.1 kmCalmClear
8:35 AM10 °C-3 °C40 %1020 hPa16.1 kmEast (90°)11.1 km/hClear
8:56 AM11 °C-5 °C33 %1020 hPa16.1 kmCalmClear
9:15 AM12 °C-6 °C28 %1020 hPa16.1 kmCalmClear
9:36 AM12 °C-7 °C26 %1020 hPa16.1 kmWSW (240°)5.6 km/hScattered Clouds
9:56 AM13 °C-7 °C25 %1020 hPa16.1 kmWest (270°)11.1 km/hScattered Clouds
10:16 AM13 °C-7 °C25 %1020.3 hPa16.1 kmNNW (330°)18.5 km/h29.6 km/hMostly Cloudy
10:36 AM13 °C-8 °C23 %1020.3 hPa16.1 kmWest (280°)16.7 km/hOvercast
10:55 AM13 °C-8 °C23 %1020.3 hPa16.1 kmWest (280°)16.7 km/hOvercast
11:16 AM14 °C-8 °C21 %1020.3 hPa16.1 kmWNW (290°)20.4 km/h27.8 km/hMostly Cloudy
11:36 AM15 °C-7 °C22 %1020 hPa16.1 kmWest (270°)24.1 km/hMostly Cloudy
11:56 AM15 °C-7 °C22 %1020 hPa16.1 kmWest (280°)20.4 km/h27.8 km/hScattered Clouds
12:16 PM15 °C-8 °C20 %1019.6 hPa16.1 kmWest (280°)20.4 km/h35.2 km/hScattered Clouds
12:36 PM16 °C-8 °C19 %1019.3 hPa16.1 kmWNW (290°)16.7 km/h35.2 km/hMostly Cloudy
12:56 PM15 °C-8 °C20 %1019 hPa16.1 kmWest (270°)20.4 km/h37 km/hScattered Clouds
1:15 PM16 °C-8 °C19 %1019 hPa16.1 kmWNW (290°)14.8 km/h35.2 km/hClear
1:36 PM16 °C-8 °C19 %1019 hPa16.1 kmWest (280°)14.8 km/hClear
1:56 PM16 °C-11 °C15 %1019 hPa16.1 kmWNW (300°)24.1 km/h37 km/hClear
2:16 PM16 °C-11 °C15 %1019 hPa16.1 kmNW (310°)20.4 km/h38.9 km/hClear
2:36 PM16 °C-11 °C15 %1019 hPa16.1 kmNW (320°)25.9 km/h37 km/hScattered Clouds
2:56 PM15 °C-10 °C17 %1019 hPa16.1 kmNW (310°)20.4 km/h38.9 km/hMostly Cloudy
3:16 PM15 °C-10 °C17 %1019 hPa16.1 kmWNW (290°)16.7 km/h33.3 km/hMostly Cloudy
3:36 PM15 °C-7 °C22 %1019 hPa16.1 kmNNW (330°)18.5 km/h27.8 km/hOvercast
3:56 PM15 °C-7 °C22 %1018.6 hPa16.1 kmNW (320°)20.4 km/h29.6 km/hOvercast
4:16 PM14 °C-7 °C23 %1019 hPa16.1 kmNorth (350°)20.4 km/h31.5 km/hOvercast
4:35 PM14 °C-7 °C23 %1019 hPa16.1 kmNW (320°)20.4 km/h40.7 km/hOvercast
4:56 PM13 °C-6 °C26 %1019 hPa16.1 kmNorth (350°)24.1 km/h31.5 km/hMostly Cloudy
5:16 PM14 °C-6 °C25 %1019 hPa16.1 kmNorth (350°)24.1 km/h31.5 km/hScattered Clouds
5:36 PM15 °C-6 °C23 %1019.3 hPa16.1 kmNNW (340°)13 km/h29.6 km/hClear
5:56 PM15 °C-6 °C23 %1019.3 hPa16.1 kmNNW (330°)13 km/hClear
6:16 PM15 °C-6 °C23 %1019.3 hPa16.1 kmNW (310°)7.4 km/hClear
6:36 PM13 °C-8 °C23 %1019.3 hPa16.1 kmWSW (250°)11.1 km/hClear
6:56 PM13 °C-7 °C25 %1019.6 hPa16.1 kmNW (320°)11.1 km/h33.3 km/hMostly Cloudy
7:16 PM12 °C-7 °C26 %1019.6 hPa16.1 kmNW (320°)11.1 km/hMostly Cloudy
7:36 PM10 °C-3 °C40 %1020 hPa16.1 kmNNW (340°)20.4 km/h33.3 km/hMostly Cloudy
7:56 PM10 °C-3 °C40 %1020 hPa16.1 kmNNW (340°)20.4 km/h27.8 km/hMostly Cloudy
8:16 PM10 °C-2 °C43 %1020.3 hPa16.1 kmCalmMostly Cloudy
8:36 PM10 °C-2 °C43 %1020.7 hPa16.1 kmCalmMostly Cloudy
8:55 PM8 °C-2 °C50 %1021.3 hPa16.1 kmCalmMostly Cloudy
9:16 PM8 °C-1 °C53 %1021.3 hPa16.1 kmWSW (240°)7.4 km/hOvercast
9:36 PM7 °C-2 °C53 %1021.7 hPa16.1 kmNNW (330°)13 km/hMostly Cloudy
9:56 PM7 °C-2 °C53 %1021.7 hPa16.1 kmCalmMostly Cloudy
10:16 PM5 °C-2 °C61 %1021.7 hPa16.1 kmCalmMostly Cloudy
10:36 PM5 °C-2 °C61 %1021.7 hPa16.1 kmCalmScattered Clouds
10:56 PM3 °C-2 °C70 %1021.7 hPa16.1 kmCalmScattered Clouds
11:16 PM3 °C-2 °C70 %1021.7 hPa16.1 kmCalmMostly Cloudy
11:36 PM3 °C-1 °C75 %1021.7 hPa16.1 kmCalmScattered Clouds
11:56 PM2 °C-2 °C75 %1021.7 hPa16.1 kmNNE (20°)5.6 km/hClear
Hourly data recorded from K20V, located 0 kilometers away from Granby, Colorado







STORIES FROM OUR PARTNERS